Time,TemperatureF,DewpointF,PressureIn,WindDirection,WindDirectionDegrees,WindSpeedMPH,WindSpeedGustMPH,Humidity,HourlyPrecipIn,Conditions,Clouds,dailyrainin,SolarRadiationWatts/m^2,SoftwareType,DateUTC
2013-09-03 01:50:00,69.0,53.0,-100.00,NE,46,10.0,16.0,58,0.00,,,-99.99,0.000000,,2013-09-03 07:50:00,
2013-09-03 02:22:00,69.0,53.0,-100.00,NE,46,10.0,16.0,58,0.00,,,-99.99,0.000000,,2013-09-03 08:22:00,
2013-09-03 02:32:00,69.0,53.0,-100.00,NE,46,10.0,16.0,58,0.00,,,-99.99,0.000000,,2013-09-03 08:32:00,
2013-09-03 02:42:00,69.0,53.0,-100.00,NE,46,10.0,16.0,58,0.00,,,-99.99,0.000000,,2013-09-03 08:42:00,
2013-09-03 04:53:00,62.0,53.0,-100.00,South,172,1.0,3.0,74,0.00,,,-99.99,0.000000,,2013-09-03 10:53:00,
2013-09-03 06:50:00,62.0,53.0,-100.00,NE,39,3.0,5.0,72,0.00,,,-99.99,6.000000,,2013-09-03 12:50:00,
2013-09-03 06:52:00,62.0,53.0,-100.00,NNE,25,5.0,6.0,71,0.00,,,-99.99,0.000000,,2013-09-03 12:52:00,
2013-09-03 07:21:00,62.0,53.0,-100.00,NE,39,3.0,5.0,72,0.00,,,-99.99,6.000000,,2013-09-03 13:21:00,
2013-09-03 07:32:00,62.0,53.0,-100.00,NE,39,3.0,5.0,72,0.00,,,-99.99,6.000000,,2013-09-03 13:32:00,
2013-09-03 07:42:00,62.0,53.0,-100.00,NE,39,3.0,5.0,72,0.00,,,-99.99,6.000000,,2013-09-03 13:42:00,
2013-09-03 11:50:00,80.0,54.0,-100.00,SE,135,5.0,8.0,40,0.00,,,-99.99,852.000000,,2013-09-03 17:50:00,
2013-09-03 11:52:00,80.0,54.0,-100.00,ESE,121,5.0,10.0,40,0.00,,,-99.99,905.000000,,2013-09-03 17:52:00,
2013-09-03 12:21:00,80.0,54.0,-100.00,SE,135,5.0,8.0,40,0.00,,,-99.99,852.000000,,2013-09-03 18:21:00,
2013-09-03 12:32:00,80.0,54.0,-100.00,SE,135,5.0,8.0,40,0.00,,,-99.99,852.000000,,2013-09-03 18:32:00,
2013-09-03 12:42:00,80.0,54.0,-100.00,SE,135,5.0,8.0,40,0.00,,,-99.99,852.000000,,2013-09-03 18:42:00,
2013-09-03 13:52:00,87.0,53.0,-100.00,ESE,121,6.0,12.0,31,0.00,,,-99.99,1008.000000,,2013-09-03 19:52:00,
2013-09-03 14:52:00,88.0,52.0,-100.00,ESE,114,11.0,20.0,30,0.00,,,-99.99,1163.000000,,2013-09-03 20:52:00,
2013-09-03 15:54:00,84.0,53.0,-100.00,SE,127,9.0,13.0,34,0.00,,,-99.99,451.000000,,2013-09-03 21:54:00,
2013-09-03 16:50:00,82.0,54.0,-100.00,WSW,242,3.0,6.0,38,0.00,,,-99.99,204.000000,,2013-09-03 22:50:00,
2013-09-03 17:22:00,82.0,54.0,-100.00,WSW,242,3.0,6.0,38,0.00,,,-99.99,204.000000,,2013-09-03 23:22:00,
2013-09-03 17:34:00,82.0,54.0,-100.00,WSW,242,3.0,6.0,38,0.00,,,-99.99,204.000000,,2013-09-03 23:34:00,
2013-09-03 17:42:00,82.0,54.0,-100.00,WSW,242,3.0,6.0,38,0.00,,,-99.99,204.000000,,2013-09-03 23:42:00,
2013-09-03 18:22:00,83.0,52.0,-100.00,SW,220,5.0,7.0,35,0.00,,,-99.99,356.000000,,2013-09-04 00:22:00,
2013-09-03 21:22:00,67.0,58.0,-100.00,East,97,3.0,4.0,74,0.00,,,-99.99,0.000000,,2013-09-04 03:22:00,
2013-09-03 21:50:00,66.0,59.0,-100.00,NW,310,4.0,5.0,79,0.00,,,-99.99,0.000000,,2013-09-04 03:50:00,
2013-09-03 22:24:00,66.0,59.0,-100.00,NW,310,4.0,5.0,79,0.00,,,-99.99,0.000000,,2013-09-04 04:24:00,
2013-09-03 22:33:00,66.0,59.0,-100.00,NW,310,4.0,5.0,79,0.00,,,-99.99,0.000000,,2013-09-04 04:33:00,
2013-09-03 22:44:00,66.0,59.0,-100.00,NW,310,4.0,5.0,79,0.00,,,-99.99,0.000000,,2013-09-04 04:44:00,
2013-09-03 23:53:00,66.0,60.0,-100.00,NW,309,4.0,5.0,81,0.00,,,-99.99,0.000000,,2013-09-04 05:53:00,